This is the latest recevied weather packets stored in our database for station/object N0QV. If no packets are shown the sender has not sent any weather packets the latest 10 day(s).
| Time | Temp. | Humidity | Pressure | Rain* | Wind** | Luminosity | Snow |
|---|---|---|---|---|---|---|---|
| 1777912099 | 17.78° C | 35% | 1001 hPa | 0 mm | - | 614 W/m² | - |
| 1777911795 | 17.22° C | 37% | 1000.8 hPa | 0 mm | - | 655 W/m² | - |
| 1777911492 | 17.22° C | 35% | 1001 hPa | 0 mm | - | 567 W/m² | - |
| 1777911189 | 17.22° C | 37% | 1000.8 hPa | 0 mm | - | 672 W/m² | - |
| 1777910886 | 17.78° C | 38% | 1000.6 hPa | 0 mm | - | 674 W/m² | - |
| 1777910583 | 17.22° C | 40% | 1000.6 hPa | 0 mm | - | 703 W/m² | - |
| 1777910280 | 16.67° C | 40% | 1000.7 hPa | 0 mm | - | 599 W/m² | - |
| 1777909977 | 16.11° C | 40% | 1000.9 hPa | 0 mm | - | 425 W/m² | - |
| 1777909674 | 16.11° C | 40% | 1000.8 hPa | 0 mm | - | 440 W/m² | - |
| 1777909371 | 16.11° C | 41% | 1000.7 hPa | 0 mm | - | 382 W/m² | - |
| 1777909069 | 16.11° C | 40% | 1000.6 hPa | 0 mm | - | 393 W/m² | - |
| 1777908766 | 16.11° C | 40% | 1000.7 hPa | 0 mm | - | 443 W/m² | - |
| 1777908463 | 16.11° C | 39% | 1000.7 hPa | 0 mm | - | 497 W/m² | - |
| 1777908160 | 16.11° C | 38% | 1000.5 hPa | 0 mm | - | 269 W/m² | - |
| 1777907856 | 16.67° C | 38% | 1000.4 hPa | 0 mm | - | 202 W/m² | - |
| 1777907552 | 17.22° C | 36% | 1000.4 hPa | 0 mm | - | 285 W/m² | - |
| 1777907248 | 17.22° C | 35% | 1000.2 hPa | 0 mm | - | 533 W/m² | - |
| 1777906945 | 16.67° C | 36% | 1000.4 hPa | 0 mm | - | 487 W/m² | - |
| 1777906643 | 16.11° C | 38% | 1000.5 hPa | 0 mm | - | 376 W/m² | - |
| 1777906338 | 16.11° C | 38% | 1000.7 hPa | 0 mm | - | 327 W/m² | - |
| 1777906035 | 16.67° C | 37% | 1000.5 hPa | 0 mm | - | 383 W/m² | - |
| 1777905731 | 16.67° C | 38% | 1000.3 hPa | 0 mm | - | 396 W/m² | - |
| 1777905429 | 16.11° C | 39% | 1000.3 hPa | 0 mm | - | 385 W/m² | - |
| 1777905127 | 16.11° C | 38% | 1000.4 hPa | 0 mm | - | 374 W/m² | - |
| 1777904823 | 16.67° C | 40% | 1000.3 hPa | 0 mm | - | 335 W/m² | - |
* Rain latest hour (hover to see other rain measurements)
** Current wind speed in m/s (hover to see current wind gust speed)